{"data":{"norad_id":60069,"epoch":"2026-09-21T03:10:45.852096Z","epoch_age_seconds":122695,"freshness":"FRESH","line1":"1 60069U 24113L   26264.13247514  .00000298  00000+0  73194-5 0  9996","line2":"2 60069  53.1576 308.0444 0001054  88.1766 271.9373 15.69711992130252","mean_motion":15.69711992,"eccentricity":0.0001054,"inclination_deg":53.1576,"raan_deg":308.0444,"arg_perigee_deg":88.1766,"mean_anomaly_deg":271.9373,"bstar":7.3194e-6,"rev_number":13025,"period_min":91.736573800731,"perigee_km":359.01087984583,"apogee_km":360.43122032279,"semimajor_km":6737.8580500843,"source":"CELESTRAK","updated_at":"2026-09-22T09:00:49.148327Z"}}